Flag for U.S.A. Weather past 2 weeks in Hereford, Texas, U.S.A.

Now
54 °F

Cool.


Feels Like: 49 °F
Forecast: 46 / 79 °F
Wind: 14 mph from Northwest

Location: Clovis Municipal


UV Index: 7 (High)

Visibility: 10 mi


Pressure: 30.08 "Hg

Humidity: 67%

Dew point: 43 °F

Location of HerefordLocation

Historic Weather in Hereford

°F

Hereford temperature yesterday

Maximum temperature yesterday: 73 °F (at 3:55 PM)
Minimum temperature yesterday: 48 °F (at 1:35 AM)
Average temperature yesterday: 58 °F

Past Weeks' High & Low Weather Summary

 TemperatureHumidityPressure
High84 °F (Apr 9, 3:35 PM)94% (Apr 20, 6:35 AM)30.35 "Hg (Apr 20, 6:35 AM)
Low25 °F (Apr 15, 3:55 AM)9% (Apr 10, 1:35 PM)29.64 "Hg (Apr 13, 6:35 PM)
Average55 °F43%30.04 "Hg
* Reported Apr 6 3:15 AM — Apr 21 3:55 AM, Hereford, Weather by CustomWeather, © 2014

Note: Actual official high and low records may vary slightly from our data, if they occured in-between our weather recording intervals... More about our weather records

Advertising

Historic Weather Conditions — Data for Previous 24 hours

 ConditionsComfort  
Time TempWeatherWind HumidityBarometerVisibility
3:55 AM
Apr 21
52 °FCool.9 mph67%30.09 "Hg10 mi
3:35 AM52 °FCool.13 mph67%30.08 "Hg10 mi
3:15 AM52 °FCool.10 mph72%30.08 "Hg10 mi
2:55 AM52 °FCool.10 mph72%30.08 "Hg10 mi
2:35 AM52 °FCool.10 mph72%30.09 "Hg10 mi
2:15 AM54 °FCool.12 mph67%30.09 "Hg10 mi
1:55 AM54 °FCool.12 mph67%30.09 "Hg10 mi
1:35 AM52 °FCool.8 mph72%30.09 "Hg10 mi
1:15 AM52 °FCool.9 mph72%30.09 "Hg10 mi
12:55 AM54 °FCool.9 mph72%30.09 "Hg10 mi
12:35 AM54 °FCool.9 mph72%30.09 "Hg10 mi
12:15 AM54 °FCool.9 mph72%30.09 "Hg10 mi
11:55 PM
Apr 20
52 °FCool.9 mph77%30.09 "Hg10 mi
11:35 PM54 °FCool.7 mph72%30.09 "Hg10 mi
11:15 PM55 °FCool.8 mph67%30.09 "Hg10 mi
10:55 PM55 °FCool.7 mph72%30.08 "Hg10 mi
10:35 PM55 °FCool.6 mph72%30.08 "Hg10 mi
10:15 PM55 °FCool.6 mph72%30.08 "Hg10 mi
9:35 PM57 °FCool.7 mph72%30.07 "Hg10 mi
9:15 PM59 °FCool.7 mph72%30.06 "Hg10 mi
8:55 PM61 °FCool.5 mph72%30.05 "Hg10 mi
8:35 PM61 °FCool.5 mph72%30.05 "Hg10 mi
8:15 PM63 °FMild.5 mph64%30.04 "Hg10 mi
7:55 PM63 °FMild.3 mph68%30.04 "Hg10 mi
7:35 PM64 °FMild.No wind64%30.04 "Hg10 mi
7:15 PM63 °FMild.No wind68%30.03 "Hg10 mi
6:55 PM63 °FMild.6 mph68%30.02 "Hg10 mi
6:35 PM63 °FMild.No wind68%30.02 "Hg10 mi
6:15 PM61 °FThundershowers. Cloudy.7 mph63%30.03 "Hg10 mi
5:55 PM61 °FThunderstorms. Cloudy.25 mph63%30.03 "Hg10 mi
5:35 PM70 °FMild.18 mph43%29.99 "Hg10 mi
5:15 PM72 °FMild.10 mph41%29.99 "Hg10 mi
4:55 PM73 °FMild.14 mph38%30.00 "Hg10 mi
4:15 PM64 °FMild.8 mph56%30.02 "Hg10 mi
3:55 PM73 °FMild.12 mph36%30.01 "Hg10 mi
3:35 PM72 °FMild.12 mph38%30.02 "Hg10 mi
3:15 PM72 °FMild.17 mph38%30.04 "Hg10 mi
2:55 PM72 °FMild.21 mph38%30.04 "Hg10 mi
2:35 PM72 °FMild.21 mph38%30.04 "Hg10 mi
2:15 PM72 °FMild.18 mph38%30.05 "Hg10 mi
1:55 PM70 °FMild.22 mph40%30.06 "Hg10 mi
1:35 PM70 °FMild.23 mph40%30.07 "Hg10 mi
1:15 PM70 °FMild.22 mph43%30.08 "Hg10 mi
12:55 PM66 °FMild.23 mph46%30.08 "Hg10 mi
12:35 PM68 °FMild.15 mph43%30.09 "Hg10 mi
12:15 PM68 °FMild.21 mph43%30.09 "Hg10 mi
11:55 AM68 °FMild.18 mph46%30.09 "Hg10 mi
11:35 AM66 °FMild.18 mph49%30.10 "Hg10 mi
11:15 AM64 °FMild.20 mph56%30.09 "Hg10 mi
10:55 AM63 °FMild.16 mph59%30.10 "Hg10 mi
10:35 AM63 °FMild.15 mph68%30.10 "Hg10 mi
9:55 AM57 °FCool.16 mph82%30.10 "Hg10 mi
9:35 AM55 °FCool.15 mph88%30.10 "Hg10 mi
9:15 AM55 °FCool.17 mph88%30.10 "Hg10 mi
8:55 AM54 °FCool.14 mph88%30.10 "Hg10 mi
8:35 AM54 °FCool.13 mph82%30.11 "Hg10 mi
8:15 AM52 °FCool.13 mph88%30.10 "Hg10 mi
7:55 AM52 °FPassing clouds.10 mph88%30.10 "Hg9 mi
7:35 AM48 °FPassing clouds.9 mph94%30.10 "Hg5 mi
7:15 AM48 °FClear.8 mph94%30.09 "Hg5 mi
6:55 AM48 °FClear.10 mph94%30.09 "Hg7 mi
6:35 AM48 °FPassing clouds.10 mph94%30.09 "Hg6 mi
6:15 AM50 °FPassing clouds.8 mph88%30.09 "Hg7 mi
5:55 AM50 °FOvercast.6 mph88%30.10 "Hg9 mi
5:35 AM50 °FOvercast.9 mph88%30.10 "Hg8 mi
5:15 AM48 °FPassing clouds.8 mph87%30.10 "Hg5 mi
Weather by CustomWeather, © 2014

See weather overview